�������l�o���
Date,Time,MP-1(��Sv/h),MP-2(��Sv/h),MP-3(��Sv/h),MP-4(��Sv/h),MP-5(��Sv/h),MP-6(��Sv/h),MP-7(��Sv/h),MP-8(��Sv/h),����,����(m/s),���J
2023/05/02,00:00,0.558,0.814,0.496,1.021,0.721,0.323,0.575,0.545,���k��,5.5,��
2023/05/02,00:10,0.558,0.813,0.493,1.020,0.719,0.323,0.575,0.545,���k��,4.1,��
2023/05/02,00:20,0.558,0.813,0.494,1.023,0.720,0.323,0.576,0.545,�k�k��,3.0,��
2023/05/02,00:30,0.557,0.816,0.495,1.021,0.723,0.323,0.575,0.545,�k��,1.7,��
2023/05/02,00:40,0.557,0.811,0.495,1.021,0.722,0.323,0.574,0.544,�k��,3.0,��
2023/05/02,00:50,0.558,0.814,0.494,1.019,0.720,0.323,0.575,0.545,�k��,4.8,��
2023/05/02,01:00,0.557,0.812,0.495,1.021,0.720,0.323,0.575,0.544,�k�k��,3.2,��
2023/05/02,01:10,0.557,0.813,0.495,1.021,0.719,0.323,0.575,0.544,�k�k��,3.3,��
2023/05/02,01:20,0.556,0.814,0.493,1.022,0.722,0.324,0.577,0.545,�k�k��,3.8,��
2023/05/02,01:30,0.556,0.814,0.493,1.021,0.720,0.325,0.577,0.545,�k�k��,3.0,��
2023/05/02,01:40,0.557,0.814,0.494,1.021,0.720,0.324,0.576,0.544,�k�k��,4.0,��
2023/05/02,01:50,0.557,0.813,0.494,1.021,0.721,0.323,0.575,0.545,�k�k��,3.2,��
2023/05/02,02:00,0.558,0.814,0.494,1.021,0.719,0.323,0.577,0.545,�k��,2.6,��
2023/05/02,02:10,0.557,0.815,0.494,1.023,0.720,0.324,0.576,0.544,���k��,3.1,��
2023/05/02,02:20,0.557,0.811,0.493,1.020,0.722,0.323,0.576,0.543,���k��,3.0,��
2023/05/02,02:30,0.557,0.813,0.493,1.023,0.720,0.324,0.577,0.542,�k��,3.3,��
2023/05/02,02:40,0.556,0.812,0.492,1.021,0.722,0.323,0.578,0.544,�k��,3.3,��
2023/05/02,02:50,0.557,0.812,0.494,1.021,0.720,0.322,0.576,0.544,�k��,3.6,��
2023/05/02,03:00,0.557,0.811,0.493,1.021,0.719,0.324,0.576,0.543,�k��,3.7,��
2023/05/02,03:10,0.557,0.814,0.494,1.019,0.721,0.325,0.579,0.545,�k��,4.3,��
2023/05/02,03:20,0.556,0.811,0.493,1.022,0.720,0.324,0.577,0.545,�k��,3.6,��
2023/05/02,03:30,0.556,0.813,0.494,1.020,0.721,0.322,0.578,0.544,�k��,3.6,��
2023/05/02,03:40,0.556,0.815,0.494,1.020,0.719,0.323,0.578,0.544,�k��,3.4,��
2023/05/02,03:50,0.555,0.812,0.493,1.020,0.722,0.323,0.576,0.544,���k��,3.7,��
2023/05/02,04:00,0.556,0.813,0.493,1.021,0.721,0.325,0.578,0.544,�k��,4.2,��
2023/05/02,04:10,0.556,0.812,0.493,1.019,0.721,0.323,0.578,0.545,�k��,4.5,��
2023/05/02,04:20,0.556,0.814,0.495,1.020,0.720,0.322,0.578,0.542,�k��,3.5,��
2023/05/02,04:30,0.555,0.814,0.494,1.021,0.722,0.322,0.577,0.544,�k��,3.0,��
2023/05/02,04:40,0.555,0.811,0.494,1.024,0.720,0.323,0.579,0.542,�k��,4.6,��
2023/05/02,04:50,0.554,0.812,0.492,1.023,0.721,0.324,0.578,0.543,�k��,5.9,��
2023/05/02,05:00,0.555,0.812,0.493,1.021,0.721,0.324,0.577,0.544,�k��,5.9,��
2023/05/02,05:10,0.556,0.813,0.494,1.021,0.719,0.323,0.578,0.543,�k��,6.7,��
2023/05/02,05:20,0.555,0.813,0.493,1.021,0.720,0.323,0.577,0.543,�k��,7.5,��
2023/05/02,05:30,0.555,0.811,0.492,1.021,0.719,0.322,0.578,0.543,�k��,6.7,��
2023/05/02,05:40,0.556,0.812,0.493,1.020,0.722,0.322,0.579,0.543,�k��,5.9,��
2023/05/02,05:50,0.555,0.813,0.494,1.022,0.719,0.322,0.578,0.543,�k��,4.4,��
2023/05/02,06:00,0.556,0.813,0.494,1.020,0.721,0.324,0.578,0.545,���k��,4.6,��
2023/05/02,06:10,0.556,0.813,0.493,1.022,0.721,0.324,0.579,0.543,�k��,5.0,��
2023/05/02,06:20,0.557,0.813,0.493,1.019,0.721,0.324,0.579,0.544,�k��,4.3,��
2023/05/02,06:30,0.556,0.813,0.493,1.021,0.721,0.323,0.579,0.543,�k��,4.4,��
2023/05/02,06:40,0.557,0.814,0.493,1.020,0.720,0.323,0.579,0.544,���k��,5.2,��
2023/05/02,06:50,0.556,0.813,0.493,1.023,0.721,0.323,0.578,0.544,���k��,4.2,��
2023/05/02,07:00,0.558,0.812,0.494,1.022,0.720,0.321,0.579,0.545,���k��,6.7,��
2023/05/02,07:10,0.557,0.812,0.494,1.021,0.721,0.321,0.580,0.545,�k��,7.0,��
2023/05/02,07:20,0.559,0.812,0.495,1.022,0.721,0.320,0.578,0.544,�k��,8.7,��
2023/05/02,07:30,0.557,0.814,0.495,1.022,0.719,0.322,0.577,0.543,�k��,8.4,��
2023/05/02,07:40,0.556,0.811,0.495,1.021,0.722,0.321,0.577,0.544,�k��,5.8,��
2023/05/02,07:50,0.558,0.813,0.494,1.020,0.721,0.321,0.577,0.544,�k��,10.0,��
2023/05/02,08:00,0.557,0.812,0.495,1.023,0.719,0.321,0.576,0.543,�k��,8.8,��
2023/05/02,08:10,0.557,0.811,0.496,1.023,0.719,0.321,0.575,0.544,�k��,6.6,��
2023/05/02,08:20,0.556,0.812,0.496,1.022,0.719,0.321,0.578,0.543,���k��,8.9,��
2023/05/02,08:30,0.558,0.814,0.493,1.022,0.719,0.323,0.578,0.542,�k��,7.6,��
2023/05/02,08:40,0.558,0.812,0.496,1.026,0.722,0.322,0.577,0.541,�k��,7.7,��
2023/05/02,08:50,0.559,0.815,0.494,1.025,0.722,0.321,0.577,0.543,�k��,10.3,��
2023/05/02,09:00,0.557,0.814,0.494,1.025,0.719,0.320,0.574,0.544,�k��,11.6,��
2023/05/02,09:10,0.556,0.813,0.495,1.024,0.721,0.321,0.577,0.543,�k��,11.9,��
2023/05/02,09:20,0.558,0.815,0.493,1.024,0.720,0.322,0.576,0.542,�k��,12.2,��
2023/05/02,09:30,0.557,0.816,0.495,1.026,0.721,0.321,0.576,0.542,�k��,9.6,��
2023/05/02,09:40,0.556,0.816,0.497,1.022,0.723,0.322,0.576,0.543,�k��,7.1,��
2023/05/02,09:50,0.558,0.815,0.494,1.025,0.719,0.322,0.575,0.543,�k��,6.6,��
2023/05/02,10:00,0.557,0.816,0.495,1.028,0.721,0.323,0.576,0.543,�k��,9.7,��
2023/05/02,10:10,0.558,0.816,0.495,1.027,0.721,0.322,0.575,0.544,���k��,10.7,��
2023/05/02,10:20,0.559,0.817,0.497,1.026,0.722,0.322,0.576,0.544,�k��,10.2,��
2023/05/02,10:30,0.559,0.818,0.496,1.027,0.723,0.323,0.575,0.544,���k��,8.4,��
2023/05/02,10:40,0.559,0.817,0.494,1.027,0.723,0.322,0.576,0.542,�k��,7.8,��
2023/05/02,10:50,0.559,0.817,0.495,1.027,0.723,0.323,0.577,0.544,�k��,10.2,��
2023/05/02,11:00,0.558,0.816,0.494,1.027,0.724,0.322,0.576,0.545,�k��,6.0,��
2023/05/02,11:10,0.559,0.820,0.495,1.025,0.726,0.323,0.575,0.546,�k�k��,7.4,��
2023/05/02,11:20,0.560,0.818,0.494,1.027,0.726,0.322,0.577,0.547,�k�k��,8.5,��
2023/05/02,11:30,0.559,0.817,0.496,1.028,0.725,0.323,0.576,0.544,�k�k��,8.5,��
2023/05/02,11:40,0.560,0.818,0.495,1.026,0.725,0.324,0.576,0.545,�k��,6.1,��
2023/05/02,11:50,0.558,0.819,0.496,1.026,0.724,0.322,0.576,0.545,�k,5.6,��
2023/05/02,12:00,0.560,0.818,0.494,1.028,0.724,0.322,0.576,0.542,�k�k��,7.8,��
2023/05/02,12:10,0.559,0.820,0.494,1.027,0.724,0.322,0.576,0.544,�k�k��,6.9,��
2023/05/02,12:20,0.559,0.818,0.495,1.026,0.724,0.323,0.575,0.545,�k�k��,6.5,��
2023/05/02,12:30,0.560,0.818,0.495,1.027,0.726,0.322,0.575,0.543,�k��,7.1,��
2023/05/02,12:40,0.561,0.820,0.494,1.027,0.725,0.323,0.574,0.543,�k�k��,6.4,��
2023/05/02,12:50,0.558,0.819,0.495,1.027,0.726,0.324,0.576,0.544,�k�k��,5.6,��
2023/05/02,13:00,0.560,0.819,0.494,1.027,0.726,0.323,0.575,0.544,�k��,4.7,��
2023/05/02,13:10,0.559,0.818,0.494,1.028,0.727,0.323,0.576,0.545,�k�k��,5.6,��
2023/05/02,13:20,0.560,0.817,0.496,1.031,0.726,0.322,0.575,0.543,�k�k��,5.4,��
2023/05/02,13:30,0.558,0.819,0.496,1.027,0.728,0.323,0.575,0.544,�k�k��,5.8,��
2023/05/02,13:40,0.561,0.818,0.496,1.028,0.727,0.323,0.577,0.542,�k,4.0,��
2023/05/02,13:50,0.561,0.818,0.494,1.029,0.727,0.322,0.576,0.544,�k��,8.3,��
2023/05/02,14:00,0.560,0.820,0.496,1.029,0.727,0.323,0.576,0.544,�k��,8.2,��
2023/05/02,14:10,0.561,0.818,0.497,1.028,0.727,0.323,0.577,0.544,�k��,8.1,��
2023/05/02,14:20,0.562,0.820,0.496,1.029,0.727,0.322,0.577,0.544,�k��,10.6,��
2023/05/02,14:30,0.563,0.821,0.496,1.026,0.728,0.324,0.576,0.544,�k��,10.0,��
2023/05/02,14:40,0.562,0.821,0.496,1.027,0.729,0.323,0.577,0.545,�k��,9.7,��
2023/05/02,14:50,0.562,0.820,0.496,1.027,0.729,0.323,0.578,0.545,�k��,9.5,��
2023/05/02,15:00,0.562,0.821,0.497,1.026,0.728,0.323,0.577,0.545,�k��,8.5,��
2023/05/02,15:10,0.562,0.821,0.497,1.027,0.729,0.324,0.579,0.545,�k�k��,10.9,��
2023/05/02,15:20,0.563,0.820,0.496,1.026,0.730,0.323,0.577,0.544,�k��,8.7,��
2023/05/02,15:30,0.562,0.820,0.496,1.029,0.729,0.323,0.578,0.544,�k��,9.0,��
2023/05/02,15:40,0.563,0.821,0.498,1.027,0.727,0.324,0.576,0.544,�k��,9.5,��
2023/05/02,15:50,0.563,0.823,0.496,1.028,0.729,0.324,0.578,0.544,�k�k��,8.6,��
2023/05/02,16:00,0.561,0.820,0.497,1.030,0.729,0.323,0.577,0.544,�k��,6.0,��
2023/05/02,16:10,0.562,0.820,0.496,1.029,0.729,0.323,0.576,0.544,�k��,8.8,��
2023/05/02,16:20,0.562,0.821,0.495,1.028,0.728,0.324,0.577,0.543,�k��,8.4,��
2023/05/02,16:30,0.561,0.820,0.495,1.027,0.729,0.323,0.577,0.546,�k��,6.6,��
2023/05/02,16:40,0.562,0.822,0.495,1.029,0.729,0.323,0.577,0.543,�k�k��,7.5,��
2023/05/02,16:50,0.562,0.820,0.495,1.031,0.727,0.323,0.575,0.544,�k�k��,7.6,��
2023/05/02,17:00,0.562,0.820,0.495,1.031,0.729,0.323,0.579,0.545,�k��,6.8,��
2023/05/02,17:10,0.561,0.821,0.496,1.029,0.728,0.325,0.575,0.545,�k��,7.5,��
2023/05/02,17:20,0.562,0.822,0.495,1.029,0.727,0.323,0.576,0.546,�k��,8.2,��
2023/05/02,17:30,0.563,0.822,0.496,1.027,0.730,0.325,0.576,0.546,�k�k��,8.1,��
2023/05/02,17:40,0.561,0.824,0.495,1.028,0.728,0.323,0.577,0.547,�k��,6.1,��
2023/05/02,17:50,0.562,0.824,0.497,1.030,0.728,0.324,0.575,0.546,�k�k��,5.7,��
2023/05/02,18:00,0.560,0.824,0.496,1.030,0.728,0.323,0.576,0.548,�k�k��,6.2,��
2023/05/02,18:10,0.560,0.824,0.495,1.030,0.730,0.324,0.575,0.546,�k�k��,7.7,��
2023/05/02,18:20,0.563,0.823,0.494,1.034,0.729,0.323,0.577,0.547,�k�k��,7.4,��
2023/05/02,18:30,0.564,0.825,0.495,1.032,0.730,0.326,0.574,0.546,�k�k��,6.0,��
2023/05/02,18:40,0.563,0.825,0.495,1.033,0.729,0.325,0.575,0.547,�k�k��,5.9,��
2023/05/02,18:50,0.564,0.825,0.496,1.032,0.730,0.325,0.577,0.547,�k��,4.3,��
2023/05/02,19:00,0.563,0.822,0.498,1.031,0.731,0.325,0.576,0.547,�k��,4.9,��
2023/05/02,19:10,0.562,0.822,0.498,1.033,0.732,0.324,0.578,0.546,�k��,4.4,��
2023/05/02,19:20,0.561,0.823,0.497,1.031,0.730,0.324,0.576,0.546,���k��,4.2,��
2023/05/02,19:30,0.563,0.823,0.496,1.032,0.730,0.323,0.579,0.545,�k��,3.8,��
2023/05/02,19:40,0.562,0.824,0.497,1.032,0.730,0.325,0.577,0.545,�k��,3.9,��
2023/05/02,19:50,0.560,0.823,0.497,1.032,0.730,0.325,0.576,0.547,���k��,3.4,��
2023/05/02,20:00,0.561,0.823,0.496,1.032,0.730,0.324,0.577,0.546,���k��,3.0,��
2023/05/02,20:10,0.562,0.822,0.497,1.031,0.730,0.325,0.577,0.547,���k��,3.4,��
2023/05/02,20:20,0.563,0.825,0.498,1.029,0.731,0.325,0.578,0.544,���k��,3.4,��
2023/05/02,20:30,0.562,0.823,0.497,1.033,0.730,0.323,0.577,0.545,���k��,4.0,��
2023/05/02,20:40,0.562,0.823,0.496,1.034,0.731,0.324,0.577,0.546,���k��,4.0,��
2023/05/02,20:50,0.563,0.822,0.497,1.032,0.731,0.323,0.578,0.546,���k��,4.4,��
2023/05/02,21:00,0.562,0.823,0.497,1.032,0.730,0.323,0.577,0.544,��,4.4,��
2023/05/02,21:10,0.561,0.823,0.497,1.032,0.731,0.324,0.578,0.544,��,3.8,��
2023/05/02,21:20,0.561,0.823,0.496,1.032,0.730,0.322,0.578,0.544,��,2.9,��
2023/05/02,21:30,0.560,0.825,0.496,1.032,0.729,0.324,0.578,0.544,��,3.6,��
2023/05/02,21:40,0.562,0.823,0.496,1.031,0.731,0.325,0.579,0.547,���k��,4.1,��
2023/05/02,21:50,0.562,0.823,0.496,1.034,0.730,0.323,0.577,0.544,��,4.0,��
2023/05/02,22:00,0.560,0.823,0.496,1.033,0.729,0.323,0.576,0.545,��,4.9,��
2023/05/02,22:10,0.560,0.823,0.498,1.032,0.729,0.322,0.578,0.545,��,5.6,��
2023/05/02,22:20,0.560,0.823,0.496,1.032,0.730,0.323,0.578,0.545,���k��,6.1,��
2023/05/02,22:30,0.562,0.823,0.495,1.033,0.729,0.325,0.577,0.546,���k��,6.8,��
2023/05/02,22:40,0.561,0.820,0.496,1.036,0.732,0.323,0.580,0.544,���k��,7.0,��
2023/05/02,22:50,0.560,0.822,0.497,1.032,0.729,0.323,0.578,0.542,���k��,6.7,��
2023/05/02,23:00,0.562,0.822,0.496,1.031,0.730,0.324,0.578,0.544,���k��,7.6,��
2023/05/02,23:10,0.561,0.823,0.498,1.032,0.729,0.324,0.578,0.546,���k��,8.3,��
2023/05/02,23:20,0.561,0.824,0.497,1.033,0.731,0.323,0.579,0.544,�k��,8.2,��
2023/05/02,23:30,0.560,0.823,0.496,1.033,0.730,0.324,0.579,0.544,�k��,7.8,��
2023/05/02,23:40,0.562,0.823,0.496,1.032,0.730,0.323,0.580,0.545,���k��,6.8,��
2023/05/02,23:50,0.561,0.824,0.498,1.034,0.730,0.322,0.578,0.546,�k��,7.0,��
